• In Österreich
  • Länderverzeichnis
  • Für 7 Tage
  • Wassertemperatur
  • Satellitenkarten
  • Wetterkarte
  • News
  • Widgets
  • user-avatar
    Anmelden

    Stündliche Wetter Mutare

    Heute, 18 Dezember, Montag

    Zeit Temperatur Niederschläge Wind Luftdruck Luftfeuchtigkeit
    00:00 +18°C° 0 mm 1 m/S 653 mmHg 73%
    01:00 +18°C° 0 mm 1 m/S 653 mmHg 75%
    02:00 +16°C° 0 mm 1 m/S 652 mmHg 77%
    03:00 +16°C° 0 mm 1 m/S 652 mmHg 78%
    04:00 +16°C° 0 mm 1 m/S 652 mmHg 78%
    05:00 +16°C° 0 mm 1 m/S 652 mmHg 78%
    06:00 +20°C° 0 mm 1 m/S 653 mmHg 67%
    07:00 +23°C° 0 mm 1 m/S 654 mmHg 56%
    08:00 +27°C° 0 mm 1 m/S 656 mmHg 42%
    09:00 +29°C° 0 mm 1 m/S 656 mmHg 38%
    10:00 +31°C° 0 mm 1 m/S 656 mmHg 33%
    11:00 +33°C° 0 mm 1 m/S 656 mmHg 29%
    12:00 +34°C° 0 mm 2 m/S 655 mmHg 29%
    13:00 +34°C° 0 mm 2 m/S 654 mmHg 28%
    14:00 +33°C° 0 mm 3 m/S 654 mmHg 30%
    15:00 +31°C° 0 mm 3 m/S 654 mmHg 33%
    16:00 +30°C° 0 mm 3 m/S 653 mmHg 36%
    17:00 +29°C° 0 mm 3 m/S 652 mmHg 39%
    18:00 +27°C° 0 mm 3 m/S 652 mmHg 47%
    19:00 +24°C° 0 mm 2 m/S 652 mmHg 55%
    20:00 +21°C° 0 mm 2 m/S 652 mmHg 62%
    21:00 +20°C° 0 mm 2 m/S 652 mmHg 66%
    22:00 +19°C° 0 mm 2 m/S 652 mmHg 69%
    23:00 +20°C° 0 mm 1 m/S 653 mmHg 72%

    Morgen, 19 Dezember, Dienstag

    Zeit Temperatur Niederschläge Wind Luftdruck Luftfeuchtigkeit
    00:00 +19°C° 0 mm 1 m/S 652 mmHg 76%
    01:00 +19°C° 0 mm 1 m/S 652 mmHg 80%
    02:00 +18°C° 0 mm 1 m/S 652 mmHg 85%
    03:00 +18°C° 0 mm 1 m/S 652 mmHg 86%
    04:00 +18°C° 0 mm 1 m/S 652 mmHg 88%
    05:00 +18°C° 0 mm 1 m/S 651 mmHg 90%
    06:00 +21°C° 0 mm 1 m/S 652 mmHg 78%
    07:00 +23°C° 0 mm 1 m/S 653 mmHg 65%
    08:00 +26°C° 0 mm 1 m/S 654 mmHg 53%
    09:00 +28°C° 0 mm 2 m/S 654 mmHg 47%
    10:00 +30°C° 0 mm 2 m/S 655 mmHg 42%
    11:00 +33°C° 0 mm 3 m/S 655 mmHg 36%
    12:00 +33°C° 0,1 mm 3 m/S 654 mmHg 36%
    13:00 +33°C° 0,1 mm 3 m/S 654 mmHg 37%
    14:00 +33°C° 0,1 mm 3 m/S 653 mmHg 37%
    15:00 +31°C° 0,2 mm 3 m/S 653 mmHg 43%
    16:00 +29°C° 0,2 mm 4 m/S 652 mmHg 49%
    17:00 +28°C° 0,2 mm 4 m/S 652 mmHg 55%
    18:00 +26°C° 0,4 mm 3 m/S 652 mmHg 64%
    19:00 +24°C° 0,4 mm 3 m/S 652 mmHg 74%
    20:00 +21°C° 0,4 mm 2 m/S 652 mmHg 83%
    21:00 +20°C° 0,3 mm 2 m/S 653 mmHg 85%
    22:00 +20°C° 0,3 mm 2 m/S 653 mmHg 87%
    23:00 +20°C° 0,3 mm 2 m/S 653 mmHg 89%

    übermorgen, 20 Dezember, Mittwoch

    Zeit Temperatur Niederschläge Wind Luftdruck Luftfeuchtigkeit
    00:00 +20°C° 0,1 mm 1 m/S 653 mmHg 90%
    01:00 +20°C° 0,1 mm 1 m/S 652 mmHg 91%
    02:00 +20°C° 0,1 mm 1 m/S 652 mmHg 92%
    03:00 +20°C° 0,1 mm 1 m/S 652 mmHg 93%
    04:00 +19°C° 0,1 mm 1 m/S 652 mmHg 93%
    05:00 +19°C° 0,1 mm 1 m/S 652 mmHg 94%
    06:00 +20°C° 0,1 mm 1 m/S 653 mmHg 87%
    07:00 +22°C° 0,1 mm 1 m/S 654 mmHg 80%
    08:00 +23°C° 0,1 mm 1 m/S 654 mmHg 72%
    09:00 +25°C° 0 mm 2 m/S 655 mmHg 65%
    10:00 +27°C° 0 mm 2 m/S 655 mmHg 57%
    11:00 +29°C° 0 mm 3 m/S 655 mmHg 49%
    12:00 +29°C° 0,1 mm 3 m/S 655 mmHg 49%
    13:00 +29°C° 0,1 mm 3 m/S 654 mmHg 49%
    14:00 +29°C° 0,1 mm 3 m/S 654 mmHg 49%
    15:00 +28°C° 0,3 mm 3 m/S 653 mmHg 54%
    16:00 +27°C° 0,3 mm 3 m/S 653 mmHg 59%
    17:00 +26°C° 0,3 mm 4 m/S 653 mmHg 64%
    18:00 +24°C° 0,3 mm 3 m/S 653 mmHg 71%
    19:00 +21°C° 0,3 mm 3 m/S 653 mmHg 79%
    20:00 +20°C° 0,3 mm 2 m/S 654 mmHg 86%
    21:00 +19°C° 0,1 mm 2 m/S 654 mmHg 87%
    22:00 +19°C° 0,1 mm 2 m/S 654 mmHg 89%
    23:00 +20°C° 0,1 mm 1 m/S 655 mmHg 90%

    21 Dezember, Donnerstag

    Zeit Temperatur Niederschläge Wind Luftdruck Luftfeuchtigkeit
    00:00 +19°C° 0 mm 1 m/S 654 mmHg 90%
    01:00 +19°C° 0 mm 1 m/S 654 mmHg 91%
    02:00 +19°C° 0 mm 1 m/S 653 mmHg 91%
    03:00 +19°C° 0 mm 1 m/S 653 mmHg 91%
    04:00 +19°C° 0 mm 1 m/S 653 mmHg 91%
    05:00 +19°C° 0 mm 1 m/S 653 mmHg 91%
    06:00 +20°C° 0 mm 1 m/S 654 mmHg 86%
    07:00 +21°C° 0 mm 1 m/S 655 mmHg 80%
    08:00 +23°C° 0 mm 1 m/S 656 mmHg 74%
    09:00 +25°C° 0,1 mm 1 m/S 656 mmHg 66%
    10:00 +27°C° 0,1 mm 2 m/S 656 mmHg 59%
    11:00 +28°C° 0,1 mm 2 m/S 656 mmHg 51%
    12:00 +29°C° 0,3 mm 2 m/S 655 mmHg 49%
    13:00 +30°C° 0,3 mm 2 m/S 655 mmHg 47%
    14:00 +30°C° 0,3 mm 2 m/S 654 mmHg 46%
    15:00 +29°C° 0,8 mm 2 m/S 654 mmHg 52%
    16:00 +27°C° 0,8 mm 2 m/S 653 mmHg 59%
    17:00 +26°C° 0,8 mm 2 m/S 653 mmHg 65%
    18:00 +24°C° 0,9 mm 2 m/S 653 mmHg 73%
    19:00 +23°C° 0,9 mm 2 m/S 653 mmHg 81%
    20:00 +21°C° 0,9 mm 1 m/S 653 mmHg 89%
    21:00 +20°C° 0,1 mm 1 m/S 653 mmHg 90%
    22:00 +20°C° 0,1 mm 1 m/S 653 mmHg 91%
    23:00 +20°C° 0,1 mm 1 m/S 653 mmHg 92%

    22 Dezember, Freitag

    Zeit Temperatur Niederschläge Wind Luftdruck Luftfeuchtigkeit
    00:00 +20°C° 0 mm 1 m/S 653 mmHg 93%
    01:00 +19°C° 0 mm 1 m/S 652 mmHg 93%
    02:00 +19°C° 0 mm 1 m/S 652 mmHg 94%
    03:00 +19°C° 0 mm 1 m/S 652 mmHg 94%
    04:00 +19°C° 0 mm 1 m/S 652 mmHg 94%
    05:00 +19°C° 0 mm 1 m/S 652 mmHg 94%
    06:00 +21°C° 0 mm 1 m/S 653 mmHg 85%
    07:00 +23°C° 0 mm 1 m/S 654 mmHg 76%
    08:00 +25°C° 0 mm 1 m/S 655 mmHg 66%
    09:00 +27°C° 0 mm 1 m/S 655 mmHg 58%
    10:00 +30°C° 0 mm 1 m/S 655 mmHg 50%
    11:00 +32°C° 0 mm 2 m/S 655 mmHg 41%
    12:00 +31°C° 0,7 mm 1 m/S 654 mmHg 45%
    13:00 +30°C° 0,7 mm 1 m/S 653 mmHg 48%
    14:00 +30°C° 0,7 mm 1 m/S 652 mmHg 51%
    15:00 +29°C° 1,4 mm 1 m/S 651 mmHg 57%
    16:00 +27°C° 1,4 mm 1 m/S 651 mmHg 62%
    17:00 +26°C° 1,4 mm 1 m/S 651 mmHg 68%
    18:00 +25°C° 0,2 mm 1 m/S 651 mmHg 72%
    19:00 +24°C° 0,2 mm 1 m/S 651 mmHg 76%
    20:00 +23°C° 0,2 mm 1 m/S 651 mmHg 80%
    21:00 +22°C° 0,1 mm 1 m/S 651 mmHg 82%
    22:00 +22°C° 0,1 mm 1 m/S 651 mmHg 83%
    23:00 +21°C° 0,1 mm 1 m/S 651 mmHg 85%

    23 Dezember, Samstag

    Zeit Temperatur Niederschläge Wind Luftdruck Luftfeuchtigkeit
    00:00 +21°C° 0,3 mm 1 m/S 650 mmHg 86%
    01:00 +21°C° 0,3 mm 1 m/S 650 mmHg 87%
    02:00 +21°C° 0,3 mm 1 m/S 650 mmHg 87%
    03:00 +20°C° 0,6 mm 1 m/S 650 mmHg 88%
    04:00 +20°C° 0,6 mm 1 m/S 650 mmHg 88%
    05:00 +20°C° 0,6 mm 1 m/S 650 mmHg 88%
    06:00 +21°C° 0,4 mm 1 m/S 651 mmHg 84%
    07:00 +22°C° 0,4 mm 1 m/S 651 mmHg 80%
    08:00 +23°C° 0,4 mm 1 m/S 652 mmHg 77%
    09:00 +26°C° 0 mm 1 m/S 652 mmHg 65%
    10:00 +29°C° 0 mm 1 m/S 652 mmHg 54%
    11:00 +31°C° 0 mm 2 m/S 653 mmHg 43%
    12:00 +32°C° 0,3 mm 2 m/S 652 mmHg 42%
    13:00 +32°C° 0,3 mm 2 m/S 652 mmHg 41%
    14:00 +32°C° 0,3 mm 2 m/S 651 mmHg 40%
    15:00 +30°C° 1 mm 2 m/S 651 mmHg 49%
    16:00 +28°C° 1 mm 1 m/S 650 mmHg 58%
    17:00 +26°C° 1 mm 1 m/S 649 mmHg 67%
    18:00 +25°C° 1,4 mm 1 m/S 650 mmHg 72%
    19:00 +24°C° 1,4 mm 2 m/S 650 mmHg 77%
    20:00 +21°C° 1,4 mm 2 m/S 650 mmHg 82%
    21:00 +22°C° 0,6 mm 1 m/S 650 mmHg 83%
    22:00 +21°C° 0,6 mm 1 m/S 650 mmHg 84%
    23:00 +21°C° 0,6 mm 1 m/S 650 mmHg 85%
    Mehr zeigen